Location: Ravensburg
(47.7866°N, 9.6124°E)
Time: 03:22:05
(UTC+02:00)

Gurwin Techsat 1B - Pass Details

Date: 14 March 2026
Orbit: 809 x 812 km, 99.0° (Epoch: 14 April)

Event Time Altitude Azimuth Distance (km) Brightness Sun altitude
Rises 03:48:49 0° 35° (NE) 3,339 12.8 -28.0°
Reaches altitude 10° 03:54:04 10° 79° (E) 2,398 11.9 -27.2°
Maximum altitude 03:54:34 10° 85° (E) 2,389 11.9 -27.1°
Drops below altitude 10° 03:55:04 10° 90° (E) 2,396 11.8 -27.1°
Sets 04:00:16 0° 134° (SE) 3,318 12.0 -26.3°
